Location: Allonne
(49.4086°N, 2.1143°E)
Time: 11:44:38
(UTC+00:00)

Cosmos 1140 Rocket - Pass Details

Date: 03 February 2023
Orbit: 744 x 766 km, 74.1° (Epoch: 21 March)

Event Time Altitude Azimuth Distance (km) Brightness Sun altitude
Rises 17:22:20 0° 198° (SSW) 3,198 7.3 -5.7°
Reaches altitude 10° 17:24:41 10° 198° (SSW) 2,274 6.5 -6.0°
Maximum altitude 17:29:50 81° 112° (ESE) 765 3.5 -6.8°
Drops below altitude 10° 17:35:00 10° 25° (NNE) 2,277 5.6 -7.6°
Sets 17:37:22 0° 25° (NNE) 3,202 6.3 -8.0°
